Find Starlink 1762

NORAD ID: 46342 Int'l Des: 2020-062 Owner: SPXS Country: US Constellation: starlink operational
LEOCIRCULAR

現在のビュー

3D地球を読み込み中...

About Starlink 1762

Starlink 1762 (NORAD 46342) is a starlink constellation satellite (v1.0) launched Sep 3, 2020 by SPXS of US. It operates in LEO, CIRCULAR orbit with a mass of 260.00 kg.

Starlink 1762について

説明を読み込み中...

次回通過

Passes for default location (London). Set your location on the main map for personalized predictions.

高度履歴

Loading altitude history...

軌道要素

1 46342U 20062T 26166.58884245 .00048386 00000-0 12383-2 0 9992
2 46342 53.1550 273.4994 0002956 279.5214 80.5456 15.38959607319420
Epoch: Jun 15, 2026 • Age: 16 hours

現在のステータス

高度 450.0 km
速度 7.64 km/s
衛星直下点 5.07°N, 84.92°E
打ち上げ日 Sep 3, 2020
運用期間 5.7 years
タイプ internet

技術仕様

分類 Payload
質量 260.00 kg
乾燥質量 248.00 kg
総質量 260.00 kg
長さ 0.20 m
直径 2.80 m
スパン 9.00 m
形状 Box + pan
製造者 SPXS
バスタイプ Starlink
フェーズステータス In Orbit
所有者/国 SPXS/US

Most Searched